Lid_Strength_Index
1 1 1 1 1 1 1 1 0 0 0 0 0 0 0 0 1 1 1 1 1 1
1 1 1 1 0 1 0 1 0 0 0 0 0 0 1 1 1 1 1 1 1 2
3 2 2 3 4 3 4 3 1 1 1 1 1 1 2 2 2 2 2 2 2 2
5 5 5 6 5 6 6 6 6 5 6 5 5 5 5 4 5 3 3 2 2 2
6 7 7 6 7 7 8 8 8 8 8 8 8 7 7 7 7 7 7 6 6 6
9 10 10 9 10 10 11 10 10 10 10 9 9 9 9 9 9 9 9 8 8 8
11 10 11 11 12 12 12 12 12 12 12 11 10 10 10 10 10 10 9 9 9 8
12 12 12 12 12 13 13 13 13 13 13 13 12 12 11 10 10 10 10 10 9 8
13 13 13 13 13 14 14 13 13 13 14 13 14 12 12 11 11 11 11 11 10 10
14 14 14 14 14 13 13 13 13 13 13 14 13 12 11 10 10 10 10 10 10 10
13 13 13 12 12 12 12 12 12 13 12 12 12 11 11 11 11 11 11 11 11 11
12 12 13 13 13 13 12 12 13 13 13 13 13 12 12 12 12 12 12 12 12 12
13 13 13 13 13 13 13 13 13 14 14 14 14 13 13 12 12 13 13 13 13 13
13 13 13 13 13 14 14 14 14 14 14 14 14 14 13 13 14 14 14 14 14 14